User: anonymous   Login
Location: Beuerbach
(48.1459°N, 10.9174°E)
Time: 07:16:15
(UTC+00:00)
Language:

Cosmos 2098 Rocket - Orbit

View from above orbital plane
View from above orbital plane
View from above satellite
View from above satellite

Ground track
Ground track

The orbit data is extracted from the following two-line orbital elements,

1 20775U 90078B   24204.08367176  .00024649  00000-0  96769-3 0  9990
2 20775  82.9127  56.2899 0464534 180.0781 180.0439 14.61846749721412
Epoch (UTC): 22 July 2024 02:00:29
Eccentricity: 0.0464534
inclination: 82.9127°
perigee height: 359 km
apogee height: 1015 km
right ascension of ascending node: 56.2899°
argument of perigee: 180.0781°
revolutions per day: 14.61846749
mean anomaly at epoch: 180.0439°
orbit number at epoch: 72141

The dashed part of the orbit path shows where the satellite is in the earth's shadow,  

DLR